{"data":{"norad_id":66710,"epoch":"2026-09-19T22:51:09.044064Z","epoch_age_seconds":69294,"freshness":"FRESH","line1":"1 66710U 25276AW  26262.95218801  .00004882  00000+0  22255-3 0  9994","line2":"2 66710  97.4106 334.9461 0003641  73.5337 286.6299 15.21109069 44825","mean_motion":15.21109069,"eccentricity":0.0003641,"inclination_deg":97.4106,"raan_deg":334.9461,"arg_perigee_deg":73.5337,"mean_anomaly_deg":286.6299,"bstar":0.00022255,"rev_number":4482,"period_min":94.667767706275,"perigee_km":499.98881155041,"apogee_km":504.99928708052,"semimajor_km":6880.6310493155,"source":"CELESTRAK","updated_at":"2026-09-20T09:00:34.748933Z"}}